AIZ808 LLER-LLBG

Flight info

Callsign AIZ808
Flight time N/A
Altitude 18000
Route NURIT J10 AMMIT
Aircraft A21N/M-SDE2E3FGHIRWXY/LB1

Departure

Time 2026-05-08 15:23
Airport Ramon International Airport (LLER)

Arrival

Time N/A
Airport Ben Gurion International Airport (LLBG)
Time Latitude Longitude Altitude Speed Heading
2026-05-08 15:11 29.72630 35.00804 251 ft 0 kts 281°
2026-05-08 15:15 29.72629 35.00808 251 ft 3 kts 281°
2026-05-08 15:16 29.72624 35.00839 251 ft 4 kts 281°
2026-05-08 15:16 29.72619 35.00869 251 ft 4 kts 281°
2026-05-08 15:16 29.72615 35.00898 251 ft 4 kts 255°
2026-05-08 15:16 29.72629 35.00920 251 ft 4 kts 205°
2026-05-08 15:17 29.72641 35.00925 251 ft 1 kts 196°
2026-05-08 15:19 29.72632 35.00923 251 ft 10 kts 195°
2026-05-08 15:19 29.72530 35.00892 251 ft 17 kts 194°
2026-05-08 15:19 29.72428 35.00869 251 ft 0 kts 184°
2026-05-08 15:19 29.72420 35.00876 251 ft 10 kts 146°
2026-05-08 15:20 29.72390 35.00964 251 ft 23 kts 102°
2026-05-08 15:20 29.72329 35.01109 250 ft 15 kts 153°
2026-05-08 15:20 29.72230 35.01090 250 ft 26 kts 193°
2026-05-08 15:20 29.71970 35.01019 251 ft 49 kts 193°
2026-05-08 15:21 29.71634 35.00926 250 ft 51 kts 194°
2026-05-08 15:21 29.71358 35.00849 250 ft 20 kts 193°
2026-05-08 15:21 29.71204 35.00807 250 ft 25 kts 189°
2026-05-08 15:21 29.71088 35.00822 250 ft 6 kts 121°
2026-05-08 15:22 29.71111 35.00912 248 ft 17 kts 53°
2026-05-08 15:22 29.71201 35.00981 247 ft 18 kts 14°
2026-05-08 15:22 29.71595 35.01091 248 ft 100 kts 13°
2026-05-08 15:22 29.72529 35.01352 428 ft 156 kts 14°
2026-05-08 15:23 29.73565 35.01653 1407 ft 152 kts 11°
2026-05-08 15:23 29.74588 35.01913 2522 ft 148 kts 12°
2026-05-08 15:23 29.75584 35.02128 3519 ft 151 kts 10°
2026-05-08 15:23 29.76750 35.02365 4003 ft 191 kts
2026-05-08 15:24 29.78189 35.02663 4474 ft 225 kts
2026-05-08 15:24 29.79789 35.03008 5210 ft 244 kts 10°
2026-05-08 15:24 29.81509 35.03383 5964 ft 265 kts 11°
2026-05-08 15:24 29.83387 35.03688 6818 ft 281 kts
2026-05-08 15:25 29.85361 35.03930 7821 ft 289 kts
2026-05-08 15:25 29.87394 35.04170 8911 ft 298 kts
2026-05-08 15:25 29.89493 35.04429 9951 ft 309 kts
2026-05-08 15:25 29.91682 35.04700 10792 ft 327 kts
2026-05-08 15:26 29.94038 35.04990 11337 ft 350 kts
2026-05-08 15:26 29.96512 35.05295 12069 ft 364 kts
2026-05-08 15:26 29.99051 35.05607 13002 ft 368 kts
2026-05-08 15:26 30.01604 35.05922 14057 ft 370 kts
2026-05-08 15:27 30.04172 35.06240 15040 ft 372 kts
2026-05-08 15:27 30.06765 35.06572 16059 ft 375 kts
2026-05-08 15:27 30.09361 35.07004 16995 ft 379 kts
2026-05-08 15:27 30.11979 35.07520 17650 ft 383 kts
2026-05-08 15:28 30.14607 35.08078 17931 ft 384 kts
2026-05-08 15:28 30.17241 35.08651 17968 ft 385 kts
2026-05-08 15:28 30.19847 35.09218 17967 ft 387 kts
2026-05-08 15:28 30.22500 35.09784 17971 ft 387 kts
2026-05-08 15:29 30.25159 35.10319 17969 ft 387 kts
2026-05-08 15:29 30.27820 35.10828 17972 ft 387 kts
2026-05-08 15:29 30.30484 35.11326 17969 ft 387 kts
2026-05-08 15:29 30.33142 35.11819 17968 ft 387 kts
2026-05-08 15:30 30.35774 35.12314 17968 ft 387 kts
2026-05-08 15:30 30.38434 35.12820 17971 ft 387 kts
2026-05-08 15:30 30.41115 35.13334 17975 ft 397 kts
2026-05-08 15:30 30.43925 35.13872 17976 ft 420 kts
2026-05-08 15:31 30.46853 35.14434 17972 ft 431 kts
2026-05-08 15:31 30.49830 35.15011 17988 ft 435 kts
2026-05-08 15:31 30.52819 35.15591 17982 ft 435 kts
2026-05-08 15:31 30.55801 35.16255 17981 ft 437 kts 12°
2026-05-08 15:32 30.58667 35.17295 17983 ft 438 kts 18°
2026-05-08 15:32 30.61503 35.18602 17982 ft 439 kts 20°
2026-05-08 15:32 30.64300 35.20028 17983 ft 439 kts 21°
2026-05-08 15:32 30.67082 35.21489 17983 ft 439 kts 22°
2026-05-08 15:33 30.69871 35.22946 17983 ft 439 kts 21°
2026-05-08 15:33 30.72663 35.24381 17982 ft 438 kts 21°
2026-05-08 15:33 30.75466 35.25796 17994 ft 440 kts 21°
2026-05-08 15:33 30.78288 35.27202 17993 ft 441 kts 21°
2026-05-08 15:34 30.81118 35.28599 17993 ft 442 kts 21°
2026-05-08 15:34 30.83948 35.29990 17994 ft 442 kts 21°
2026-05-08 15:34 30.86785 35.31385 17993 ft 442 kts 21°
2026-05-08 15:34 30.89619 35.32779 17991 ft 442 kts 21°
2026-05-08 15:35 30.92450 35.34174 17990 ft 442 kts 21°
2026-05-08 15:35 30.95348 35.35311 18005 ft 439 kts 12°
2026-05-08 15:35 30.98351 35.35928 18000 ft 437 kts
2026-05-08 15:35 31.01382 35.36264 17999 ft 437 kts
2026-05-08 15:36 31.04415 35.36480 17999 ft 437 kts
2026-05-08 15:36 31.06422 35.36607 17998 ft 437 kts
2026-05-08 15:36 31.10445 35.36885 17999 ft 437 kts
2026-05-08 15:36 31.13475 35.37133 17999 ft 437 kts
2026-05-08 15:37 31.16507 35.37412 17997 ft 437 kts
2026-05-08 15:37 31.19541 35.37715 17996 ft 437 kts
2026-05-08 15:37 31.22570 35.38031 17996 ft 437 kts
2026-05-08 15:37 31.25607 35.38355 17999 ft 437 kts
2026-05-08 15:38 31.28642 35.38680 17999 ft 437 kts
2026-05-08 15:38 31.31670 35.39005 17998 ft 437 kts
2026-05-08 15:38 31.34685 35.39512 18003 ft 438 kts
2026-05-08 15:38 31.37673 35.40150 17767 ft 431 kts
2026-05-08 15:39 31.40573 35.40797 16796 ft 419 kts
2026-05-08 15:39 31.43441 35.41440 15376 ft 421 kts
2026-05-08 15:39 31.46316 35.42083 14058 ft 420 kts
2026-05-08 15:39 31.49179 35.42721 12706 ft 418 kts
2026-05-08 15:40 31.52001 35.43349 11397 ft 415 kts 10°
2026-05-08 15:40 31.54869 35.43988 10114 ft 413 kts 11°
2026-05-08 15:40 31.57652 35.44610 9008 ft 412 kts 11°
2026-05-08 15:40 31.60454 35.45237 8362 ft 406 kts 11°
2026-05-08 15:41 31.63218 35.45869 8073 ft 405 kts 12°
2026-05-08 15:41 31.65977 35.46521 8011 ft 403 kts 12°
2026-05-08 15:41 31.68660 35.47158 7987 ft 376 kts 12°
2026-05-08 15:41 31.71105 35.47743 7981 ft 341 kts 12°
2026-05-08 15:42 31.73325 35.48316 7978 ft 312 kts 14°
2026-05-08 15:42 31.75429 35.48432 7991 ft 300 kts 346°
2026-05-08 15:42 31.77260 35.47350 7996 ft 296 kts 316°
2026-05-08 15:42 31.78716 35.45648 7994 ft 296 kts 311°
2026-05-08 15:43 31.80183 35.43933 7998 ft 298 kts 314°
2026-05-08 15:43 31.81729 35.42306 8000 ft 299 kts 317°
2026-05-08 15:43 31.83333 35.40749 7992 ft 299 kts 319°
2026-05-08 15:43 31.84969 35.39240 8000 ft 299 kts 320°
2026-05-08 15:44 31.86620 35.37759 7892 ft 297 kts 321°
2026-05-08 15:44 31.88264 35.36306 7477 ft 294 kts 321°
2026-05-08 15:44 31.89881 35.34890 7123 ft 293 kts 321°
2026-05-08 15:44 31.91522 35.33455 7013 ft 295 kts 322°
2026-05-08 15:45 31.93175 35.32015 7009 ft 296 kts 322°
2026-05-08 15:45 31.94830 35.30575 7011 ft 295 kts 322°
2026-05-08 15:45 31.96480 35.29142 7003 ft 295 kts 322°
2026-05-08 15:45 31.98131 35.27707 7004 ft 295 kts 322°
2026-05-08 15:46 31.99781 35.26271 7006 ft 294 kts 321°
2026-05-08 15:46 32.01361 35.24750 7007 ft 292 kts 314°
2026-05-08 15:46 32.02788 35.23057 7005 ft 289 kts 311°
2026-05-08 15:46 32.04177 35.21351 6998 ft 287 kts 311°
2026-05-08 15:47 32.05557 35.19649 7011 ft 287 kts 311°
2026-05-08 15:47 32.06939 35.17949 7002 ft 287 kts 311°
2026-05-08 15:47 32.08290 35.16222 7002 ft 287 kts 308°
2026-05-08 15:47 32.09599 35.14432 7004 ft 288 kts 308°
2026-05-08 15:48 32.12185 35.10838 6997 ft 286 kts 307°
2026-05-08 15:48 32.13457 35.09068 7004 ft 287 kts 307°
2026-05-08 15:48 32.14748 35.07269 7000 ft 287 kts 307°
2026-05-08 15:49 32.16039 35.05471 7006 ft 287 kts 307°
2026-05-08 15:49 32.17329 35.03677 6997 ft 287 kts 307°
2026-05-08 15:49 32.18620 35.01877 6996 ft 286 kts 308°
2026-05-08 15:49 32.19910 35.00082 6995 ft 286 kts 307°
2026-05-08 15:50 32.20872 34.98064 7004 ft 281 kts 287°
2026-05-08 15:50 32.21536 34.95910 6995 ft 273 kts 287°
2026-05-08 15:50 32.22153 34.93858 6991 ft 259 kts 285°
2026-05-08 15:50 32.22746 34.91854 6993 ft 257 kts 285°
2026-05-08 15:51 32.23326 34.89897 6813 ft 255 kts 287°
2026-05-08 15:51 32.23918 34.87931 6348 ft 254 kts 287°
2026-05-08 15:51 32.24518 34.85962 6052 ft 254 kts 288°
2026-05-08 15:51 32.25118 34.83998 5993 ft 254 kts 287°
2026-05-08 15:52 32.25630 34.82005 5989 ft 251 kts 272°
2026-05-08 15:52 32.25297 34.80059 5997 ft 242 kts 237°
2026-05-08 15:52 32.24054 34.78791 5992 ft 241 kts 200°
2026-05-08 15:52 32.22408 34.78377 6009 ft 243 kts 189°
2026-05-08 15:53 32.20746 34.78074 5992 ft 241 kts 191°
2026-05-08 15:53 32.19094 34.77663 5997 ft 243 kts 194°
2026-05-08 15:53 32.17459 34.77160 5997 ft 243 kts 194°
2026-05-08 15:53 32.16348 34.77004 5989 ft 243 kts 176°
2026-05-08 15:54 32.14403 34.78229 5992 ft 249 kts 133°
2026-05-08 15:54 32.13476 34.79977 5991 ft 254 kts 118°
2026-05-08 15:54 32.13023 34.81286 5998 ft 256 kts 113°
2026-05-08 15:54 32.12456 34.83284 5990 ft 257 kts 109°
2026-05-08 15:55 32.11910 34.85263 5989 ft 256 kts 112°
2026-05-08 15:55 32.10657 34.89191 5995 ft 256 kts 115°
2026-05-08 15:55 32.09952 34.91116 5969 ft 255 kts 117°
2026-05-08 15:56 32.09220 34.93014 5579 ft 253 kts 117°
2026-05-08 15:56 32.08473 34.94894 5168 ft 252 kts 116°
2026-05-08 15:56 32.07722 34.96759 5009 ft 252 kts 116°
2026-05-08 15:56 32.06969 34.98631 4994 ft 253 kts 116°
2026-05-08 15:57 32.06217 35.00508 4992 ft 254 kts 116°
2026-05-08 15:57 32.05463 35.02394 4995 ft 255 kts 116°
2026-05-08 15:57 32.04710 35.04288 4996 ft 255 kts 116°
2026-05-08 15:57 32.03956 35.06186 5005 ft 256 kts 116°
2026-05-08 15:58 32.03204 35.08083 4999 ft 255 kts 116°
2026-05-08 15:58 32.02450 35.09982 5001 ft 256 kts 116°
2026-05-08 15:58 32.01697 35.11882 5004 ft 256 kts 116°
2026-05-08 15:58 32.00945 35.13776 5006 ft 255 kts 116°
2026-05-08 15:59 32.00103 35.15600 4989 ft 254 kts 131°
2026-05-08 15:59 31.98685 35.16772 4736 ft 250 kts 160°
2026-05-08 15:59 31.96983 35.17170 4237 ft 250 kts 179°
2026-05-08 15:59 31.95288 35.16984 4016 ft 237 kts 205°
2026-05-08 16:00 31.94052 35.15872 3876 ft 216 kts 231°
2026-05-08 16:00 31.93166 35.14513 3652 ft 204 kts 239°
2026-05-08 16:00 31.92367 35.13206 3472 ft 194 kts 238°
2026-05-08 16:00 31.91564 35.11941 3154 ft 192 kts 237°
2026-05-08 16:01 31.90750 35.10713 3017 ft 188 kts 236°